Location: *
(58.7167°N, 26.1833°E)
Time: 04:14:26
(UTC+00:00)

IRAS Rocket - Pass Details

Date: 25 August 2019
Orbit: 847 x 878 km, 100.0° (Epoch: 21 September)

Event Time Altitude Azimuth Distance (km) Brightness Sun altitude
Exits shadow 20:18:54 27° 151° (SSE) 1,631 5.1 -16.6°
Maximum altitude 20:22:08 82° 67° (ENE) 888 4.2 -16.8°
Drops below altitude 10° 20:27:45 10° 341° (NNW) 2,523 8.0 -17.2°
Sets 20:30:07 0° 340° (NNW) 3,459 9.1 -17.3°
